AB9HP Weather Reports


Display with metric or nautical units.
time (UTC)temp
F
wind
direction
speed
MPH
gust
MPH
rain 1hr
in
rain 24hr
in
rain mn
in
humidity
%
barometer
mb
20260904123101 77 221 0.0 3.0 0.00 0.00 0.00 86 1014.7
20260904121558 76 149 0.0 1.0 0.00 0.00 0.00 87 1014.8
20260904120058 75 181 0.0 1.0 0.00 0.00 0.00 89 1014.7
20260904114550 75 181 0.0 1.0 0.00 0.00 0.00 89 1014.5
20260904113048 75 181 0.0 0.0 0.00 0.00 0.00 89 1014.1
20260904111558 75 181 0.0 0.0 0.00 0.00 0.00 90 1013.7
20260904110044 75 181 0.0 3.0 0.00 0.00 0.00 89 1013.5
20260904104551 75 205 1.0 5.0 0.00 0.00 0.00 89 1013.2
20260904103039 75 214 1.0 3.0 0.00 0.00 0.00 90 1012.9
20260904101541 75 212 0.0 0.0 0.00 0.00 0.00 89 1013.1
20260904100039 75 212 0.0 0.0 0.00 0.00 0.00 89 1013.3
20260904094535 76 212 0.0 0.0 0.00 0.00 0.00 88 1013.4
20260904093032 76 212 0.0 2.0 0.00 0.00 0.00 87 1013.6
20260904091532 76 210 0.0 1.0 0.00 0.00 0.00 87 1013.5
20260904090027 76 199 0.0 1.0 0.00 0.00 0.00 87 1013.5
20260904084533 76 207 0.0 6.0 0.00 0.00 0.00 87 1013.3
20260904083020 76 225 2.0 6.0 0.00 0.00 0.00 88 1013.0
20260904081512 75 172 1.0 4.0 0.00 0.00 0.00 88 1012.9
20260904080006 75 198 0.0 4.0 0.00 0.00 0.00 88 1013.0
20260904074501 75 209 1.0 3.0 0.00 0.00 0.00 88 1013.3
20260904073056 75 221 0.0 3.0 0.00 0.00 0.00 88 1013.6
20260904071604 75 228 1.0 5.0 0.00 0.00 0.00 88 1013.7
20260904070050 75 200 1.0 4.0 0.00 0.00 0.00 88 1013.8
20260904064547 75 135 0.0 5.0 0.00 0.00 0.00 88 1014.0
20260904063045 75 201 0.0 4.0 0.00 0.00 0.00 88 1014.2
20260904061543 75 203 0.0 3.0 0.00 0.00 0.00 88 1014.2
20260904060041 75 159 1.0 3.0 0.00 0.00 0.00 88 1014.3
20260904054542 74 214 2.0 5.0 0.00 0.00 0.00 88 1014.4
20260904053040 74 176 3.0 6.0 0.00 0.00 0.00 88 1014.4
20260904051535 74 195 0.0 2.0 0.00 0.00 0.00 89 1014.4
20260904050038 74 204 1.0 5.0 0.00 0.00 0.00 89 1014.6
20260904044531 74 199 1.0 3.0 0.00 0.00 0.00 90 1014.4
20260904043029 75 155 0.0 4.0 0.00 0.00 0.00 90 1014.4
20260904041526 75 178 1.0 3.0 0.00 0.00 0.00 90 1014.3
20260904040024 75 197 1.0 4.0 0.00 0.00 0.00 90 1014.1
20260904034517 75 155 2.0 6.0 0.00 0.00 0.00 90 1014.1
20260904033015 75 179 1.0 5.0 0.00 0.00 0.00 89 1014.2
20260904031513 75 131 0.0 3.0 0.00 0.00 0.00 88 1014.4
20260904030010 75 110 1.0 5.0 0.00 0.00 0.00 88 1014.3
20260904024507 76 157 3.0 6.0 0.00 0.00 0.00 87 1014.3
20260904023004 76 116 2.0 4.0 0.00 0.00 0.00 86 1014.5
20260904021502 76 128 0.0 4.0 0.00 0.00 0.00 87 1014.5
20260904020101 76 85 1.0 4.0 0.00 0.00 0.00 87 1014.4
20260904014604 76 116 0.0 4.0 0.00 0.00 0.00 86 1014.4
20260904013111 76 98 2.0 5.0 0.00 0.00 0.00 86 1014.4
20260904011556 77 107 2.0 4.0 0.00 0.00 0.00 85 1014.4
20260904010052 77 72 0.0 2.0 0.00 0.00 0.00 85 1014.5
20260904004550 77 125 1.0 6.0 0.00 0.00 0.00 85 1014.6
20260904003046 77 129 1.0 6.0 0.00 0.00 0.00 84 1014.3
20260904001545 78 98 1.0 8.0 0.00 0.00 0.00 82 1014.1
20260904000042 77 49 4.0 11.0 0.00 0.00 0.00 83 1014.0
20260903234539 78 83 5.0 16.0 0.00 0.00 0.00 83 1014.2
20260903233037 79 48 7.0 19.0 0.00 0.00 0.00 80 1014.1
20260903231535 84 338 4.0 11.0 0.00 0.00 0.00 73 1013.9
20260903230038 85 98 0.0 4.0 0.00 0.00 0.00 70 1012.9
20260903224535 86 91 1.0 6.0 0.00 0.00 0.00 70 1013.0
20260903223029 90 17 11.0 21.0 0.00 0.00 0.00 66 1013.4
20260903221526 94 239 4.0 10.0 0.00 0.00 0.00 61 1012.6
20260903220034 94 209 6.0 12.0 0.00 0.00 0.00 60 1012.3
20260903214514 94 209 2.0 14.0 0.00 0.00 0.00 59 1012.4
20260903213021 94 266 5.0 16.0 0.00 0.00 0.00 59 1012.3
20260903211510 95 249 2.0 13.0 0.00 0.00 0.00 59 1012.3
20260903210007 94 232 4.0 15.0 0.00 0.00 0.00 59 1012.4
20260903204510 95 248 6.0 16.0 0.00 0.00 0.00 58 1012.4
20260903203002 94 169 7.0 14.0 0.00 0.00 0.00 58 1012.3
20260903201600 94 196 6.0 12.0 0.00 0.00 0.00 59 1012.1
20260903200106 94 230 8.0 16.0 0.00 0.00 0.00 59 1012.2
20260903194557 94 214 6.0 14.0 0.00 0.00 0.00 59 1012.6
20260903193053 93 224 5.0 13.0 0.00 0.00 0.00 62 1012.9
20260903191544 94 248 4.0 12.0 0.00 0.00 0.00 61 1013.4
20260903190036 93 274 4.0 14.0 0.00 0.00 0.00 63 1013.8
20260903184534 93 256 5.0 12.0 0.00 0.00 0.00 62 1013.9
20260903183029 93 252 3.0 11.0 0.00 0.00 0.00 63 1014.1
20260903181525 93 291 7.0 15.0 0.00 0.00 0.00 61 1014.0
20260903180022 92 149 5.0 15.0 0.00 0.00 0.00 64 1014.0
20260903174521 91 245 5.0 10.0 0.00 0.00 0.00 65 1014.0
20260903173024 91 204 5.0 12.0 0.00 0.00 0.00 66 1013.9
20260903171515 91 219 5.0 11.0 0.00 0.00 0.00 65 1014.1
20260903170009 91 221 5.0 13.0 0.00 0.00 0.00 66 1014.3
20260903164505 90 176 5.0 13.0 0.00 0.00 0.00 68 1014.3
20260903163004 90 205 6.0 10.0 0.00 0.00 0.00 66 1014.7
20260903161558 89 174 4.0 13.0 0.00 0.00 0.00 68 1014.8
20260903160056 89 262 5.0 11.0 0.00 0.00 0.00 68 1014.9
20260903154551 88 198 5.0 11.0 0.00 0.00 0.00 69 1014.9
20260903153046 87 238 7.0 11.0 0.00 0.00 0.00 70 1014.9
20260903151543 87 262 4.0 13.0 0.00 0.00 0.00 71 1014.9
20260903150050 86 228 5.0 13.0 0.00 0.00 0.00 71 1014.8
20260903144541 86 164 4.0 9.0 0.00 0.00 0.00 73 1014.8
20260903143040 85 217 5.0 11.0 0.00 0.00 0.00 74 1014.8
20260903141534 84 238 5.0 10.0 0.00 0.00 0.00 73 1014.7
20260903140024 84 223 2.0 11.0 0.00 0.00 0.00 75 1014.8
20260903134536 83 227 8.0 12.0 0.00 0.00 0.00 76 1014.7
20260903133017 82 276 3.0 10.0 0.00 0.00 0.00 77 1014.9
20260903131512 81 205 3.0 6.0 0.00 0.00 0.00 78 1015.1
20260903130011 80 210 3.0 8.0 0.00 0.00 0.00 79 1015.1
20260903124507 79 245 5.0 11.0 0.00 0.00 0.00 80 1015.2